AirNav  
 
 746 users online  

32MD Roseland Airport
Sudlersville, Maryland, USA


FAA INFORMATION EFFECTIVE 09 NOVEMBER 2017

Location

FAA Identifier: 32MD
Lat/Long: 39-11-22.0000N / 075-52-36.6000W
39-11.366667N / 075-52.610000W
39.1894444 / -75.8768333
(estimated)
Elevation: 70 ft. / 21 m (estimated)
From city: 1 mile W of SUDLERSVILLE, MD
Time zone: UTC -5 (UTC -4 during Daylight Saving Time)
Zip code: 21668

Airport Operations

Airport use: Private use. Permission required prior to landing
Activation date: 04/2006
Control tower: no
ARTCC: WASHINGTON CENTER
FSS: LEESBURG FLIGHT SERVICE STATION
Attendance: UNATNDD
Wind indicator: yes
Segmented circle: no

Nearby radio navigation aids

VOR radial/distance  VOR name  Freq  Var
ENOr270/17.0SMYRNA VORTAC111.4009W
PPMr150/21.5PHILLIPS VOR/DME108.4009W
DQOr213/31.9DUPONT VORTAC114.0010W
BALr099/36.5BALTIMORE VORTAC115.1011W
OODr235/37.8WOODSTOWN VORTAC112.8010W
ATRr315/38.5WATERLOO VOR/DME112.6009W

 
NDB name  Hdg/Dist  Freq  Var  ID
ABERDEEN163/23.434910WAPG .- .--. --.
INSTITUTE108/35.340408WIUB .. ..- -...
RAINBOW259/37.136311WRNB .-. -. -...
CAMBRIDGE020/39.835510WCGE -.-. --. .

Airport Services

Runway Information

Runway 13/31

Dimensions: 3000 x 100 ft. / 914 x 30 m
Surface: turf
RUNWAY 13  RUNWAY 31
Traffic pattern: leftleft

Airport Ownership and Management from official FAA records

Ownership: Privately-owned
Owner: PAUL E SCHLOSSER
140 ROSEBUD LANE
SUDLERSVILLE, MD 21668
Phone 410-755-6500
Manager: PAUL A. SCHLOSSER
140 ROSEBUD LAND
SUDLERSVILLE, MD 21668
Phone 410-775-6500

Airport Operational Statistics

Aircraft based on the field: 4
Single engine airplanes: 3
Multi engine airplanes: 1
    

Instrument Procedures

There are no published instrument procedures at 32MD.

Some nearby airports with instrument procedures:

33N - Delaware Airpark (13 nm E)
KRJD - Ridgely Airpark (13 nm S)
KDOV - Dover Air Force Base (19 nm E)
KEVY - Summit Airport (21 nm N)
KAPG - Phillips Army Airfield (21 nm NW)
 
Loc | Ops | Rwys | IFR | FBO | Links
Com | Nav | Svcs | Stats | Notes


 
Area around 32MD (Roseland Airport)
 
Road maps at: MapQuest Bing Google
 
Aerial photo
No photo
 
Sectional chart

 
Airport distance calculator
Flying to Roseland Airport? Find the distance to fly.

From to 32MD

Sunrise and sunset
Times for 21-Nov-2017
 Local
(UTC-5)
 Zulu
(UTC)
Morning civil twilight06:2511:25
Sunrise06:5411:54
Sunset16:4421:44
Evening civil twilight17:1322:13

Current date and time
Zulu (UTC)  21-Nov-2017 13:00:54
Local (UTC-5)  21-Nov-2017 08:00:54
 
METAR
KAPG 
19nm NW 
211158Z 22007KT 7SM SCT150 05/01 A3014 RMK AO2A SLP210 70001 T00480005 10062 20012 53004 $
KDOV 
20nm E 
211156Z 20010KT 10SM CLR 05/01 A3016 RMK AO2A SLP217 T00520007 10057 20032 53000 $
KW29 
25nm SW 
211240Z AUTO 21011G14KT 10SM CLR 09/00 A3016 RMK AO2
KESN 
25nm S 
211245Z 20007KT 10SM FEW120 07/00 A3021
KMTN 
26nm W 
211245Z 00000KT 10SM SCT200 05/01 A3016
TAF
KDOV 
20nm E 
210800Z 2108/2214 20009KT 9999 FEW150 QNH3010INS BECMG 2114/2115 19015G25KT 9999 SCT180 QNH3005INS BECMG 2121/2122 19009KT 9999 SCT080 BKN100 WS020/22040KT QNH2998INS BECMG 2205/2206 27012KT 8000 -SHRA BKN015 610803 QNH2996INS BECMG 2213/2214 31015G25KT 8000 -SHRA BKN015 QNH2997INS TX14/2118Z TN01/2110Z
NOTAMs
Click for the latest NOTAMs
NOTAMs are issued by the DoD/FAA and will open in a separate window not controlled by AirNav.

 

 
 

Would you like to see your business listed on this page?

 If your business provides an interesting product or service to pilots, flight crews, aircraft, or users of the Roseland Airport, you should consider listing it here.  To start the listing process, click on the button below
 
Add a business
 

Other Pages about Roseland Airport

Update a link
 
Copyright © AirNav, LLC. All rights reserved. Privacy Policy  Contact